Regional Weather Roundup
Issued by NWS

Home | Current Version | Previous Version | Text Only | Print | Product List | Glossary Off
Versions: 1 2 3 4 5 6 7 8 9 10 11 12 13 14 15 16 17 18 19 20 21 22 23 24 25 26 27 28 29 30 31 32 33 34 35 36 37 38 39 40 41 42 43 44 45 46 47 48 49 50

000
ASUS43 KLSX 301910
RWRMO

WEATHER SUMMARY FOR MISSOURI
NATIONAL WEATHER SERVICE SPRINGFIELD MO
200 PM CDT SAT JUL 30 2016

NOTE: "FAIR" INDICATES FEW OR NO CLOUDS BELOW 12,000 FEET WITH NO
       SIGNIFICANT WEATHER AND/OR OBSTRUCTIONS TO VISIBILITY.
       CURRENT SKY AND/OR WEATHER CONDITIONS ARE NOT AVAILABLE FOR
       CHILLICOTHE AND FARMINGTON.

MOZ001>031-035>038-043-044-053-054-302000-
...NORTHERN AND WESTERN MISSOURI...

CITY           SKY/WX    TMP DP  RH WIND       PRES   REMARKS
KANSAS CTY INT MOSUNNY   83  62  49 CALM      30.02F
KANSAS C DTWN  SUNNY     86  63  45 VRB3      30.00F
LEE`S SUMMIT   MOSUNNY   82  65  56 E7        30.02F
ST JOSEPH      CLOUDY    82  63  52 N5        30.02F
CHILLICOTHE      N/A     82  65  56 VRB3      30.03S
KIRKSVILLE     CLOUDY    78  63  59 N3        30.03F

$$
MOZ066>068-077>081-088>096-101>105-302000-
...SOUTHWEST MISSOURI...

CITY           SKY/WX    TMP DP  RH WIND       PRES   REMARKS
SPRINGFIELD    MOSUNNY   86  65  49 W3        30.02F
JOPLIN         CLOUDY    85  71  63 NW7       30.03S HX  90
BRANSON        PTSUNNY   86  66  51 NW6       30.05F

$$
MOZ032>034-039>042-045>050-055>058-069>072-302000-
...CENTRAL MISSOURI...

CITY           SKY/WX    TMP DP  RH WIND       PRES   REMARKS
COLUMBIA       MOSUNNY   80  65  59 W9        30.02F
JEFFERSON CITY SUNNY     82  65  56 NW8       29.99F
ROLLA          MOSUNNY   84  67  56 W12       30.01F
SEDALIA        SUNNY     84  68  58 NW7       30.03F
WHITEMAN AFB   MOSUNNY   83  67  59 VRB6      30.01F
OSAGE BEACH    PTSUNNY   84  68  58 VRB3      30.02F

$$
MOZ051-052-059>065-302000-
...EAST CENTRAL MISSOURI...

CITY           SKY/WX    TMP DP  RH WIND       PRES   REMARKS
ST LOUIS INTL  PTSUNNY   85  65  51 W10       30.00S
SPIRIT OF STL  MOSUNNY   86  64  47 W8        29.98F
ST CHARLES     MOSUNNY   83  67  58 W13       29.98F

$$
MOZ072>076-082>087-097>100-106>115-302000-
...SOUTH CENTRAL AND SOUTHEAST MISSOURI...

CITY           SKY/WX    TMP DP  RH WIND       PRES   REMARKS
CAPE GIRARDEAU MOSUNNY   83  70  64 S6        29.97F
FARMINGTON     MOSUNNY   84  67  56 NW8       30.01F
POPLAR BLUFF   MOSUNNY   85  73  67 VRB5      29.98F HX  91
WEST PLAINS    MOSUNNY   85  66  53 SW6       30.05F

$$



USA.gov is the U.S. government's official web portal to all federal, state and local government web resources and services.